Location: Ladrillo (historical)
(32.8195°N, 117.2231°W)
Time: 21:58:22
(UTC+00:00)

COSMO-SKYMED 1 - Pass Details

Date: 29 October 2020
Orbit: 621 x 623 km, 97.9° (Epoch: 26 November)

Event Time Altitude Azimuth Distance (km) Brightness Sun altitude
Rises 13:20:10 0° 174° (S) 2,887 6.2 -9.9°
Reaches altitude 10° 13:22:22 10° 177° (S) 1,984 5.3 -9.5°
Maximum altitude 13:26:39 63° 259° (W) 695 2.6 -8.6°
Drops below altitude 10° 13:30:57 10° 341° (NNW) 1,997 4.9 -7.7°
Sets 13:33:10 0° 345° (NNW) 2,907 5.7 -7.3°
